Flag for Canada Weather past 2 weeks in St. Albert, Alberta, Canada

Now
68 °F

Mild.


Feels Like: 68 °F
Forecast: 49 / 72 °F
Wind: 15 mph from Northwest

Location: Edmonton Municipal

Current Time: Jul 28, 2015 at 11:55:58 AM

Latest Report: Jul 28, 2015 at 11:00 AM


Visibility: N/A

Pressure: 29.96 "Hg (27.76 "Hg at 653m altitude)

Humidity: 40%

Dew point: 43 °F

Location of St. AlbertLocation

Historic Weather in St. Albert — Graph

°F

St. Albert temperature yesterday

Maximum temperature yesterday: 73 °F (at 6:00 PM)
Minimum temperature yesterday: 55 °F (at 6:00 AM)
Average temperature yesterday: 64 °F

Past Weeks' High & Low Weather Summary

 TemperatureHumidityPressure
High79 °F (Jul 18, 5:00 PM)96% (Jul 17, 5:00 AM)30.02 "Hg (Jul 17, 5:00 AM)
Low49 °F (Jul 23, 4:00 AM)27% (Jul 14, 3:00 PM)29.67 "Hg (Jul 20, 10:00 PM)
Average65 °F62%29.83 "Hg
* Reported Jul 13 10:00 AM — Jul 28 10:00 AM, St. Albert, Weather by CustomWeather, © 2015

Note: Actual official high and low records may vary slightly from our data, if they occured in-between our weather recording intervals... More about our weather records

Advertising

St. Albert weather history for previous 24 hours

 ConditionsComfort  
Time TempWeatherWind HumidityBarometerVisibility
10:00 AM
Tue, Jul 28
65 °FMild.10 mph46%29.97 "HgN/A
9:00 AM63 °FMild.8 mph52%29.98 "HgN/A
8:00 AM59 °FRefreshingly cool.8 mph59%29.98 "HgN/A
7:00 AM54 °FCool.8 mph69%29.98 "HgN/A
6:00 AM55 °FCool.5 mph67%29.98 "HgN/A
5:00 AM56 °FCool.6 mph65%29.96 "HgN/A
4:00 AM58 °FCool.10 mph67%29.95 "HgN/A
3:00 AM58 °FCool.7 mph68%29.94 "HgN/A
2:00 AM59 °FCool.6 mph64%29.93 "HgN/A
1:00 AM60 °FCool.6 mph61%29.91 "HgN/A
12:00 AM63 °FMild.3 mph54%29.90 "HgN/A
11:00 PM
Mon, Jul 27
64 °FMild.3 mph50%29.92 "HgN/A
10:00 PM67 °FMild.3 mph44%29.93 "HgN/A
9:00 PM70 °FMild.6 mph35%29.94 "HgN/A
8:00 PM71 °FMild.7 mph33%29.93 "HgN/A
7:00 PM73 °FMild.8 mph32%29.94 "HgN/A
6:00 PM73 °FMild.10 mph31%29.93 "HgN/A
5:00 PM72 °FMild.9 mph32%29.92 "HgN/A
4:00 PM71 °FMild.9 mph34%29.92 "HgN/A
3:00 PM72 °FMild.9 mph32%29.93 "HgN/A
2:00 PM71 °FMild.6 mph34%29.93 "HgN/A
1:00 PM69 °FMild.6 mph46%29.94 "HgN/A
12:00 PM68 °FMild.6 mph49%29.94 "HgN/A
11:00 AM66 °FMild.5 mph53%29.95 "HgN/A
Weather by CustomWeather, © 2015

See weather overviewHow to use our weather pages